Regional Weather Roundup
Issued by NWS State College, PA

Home | Current Version | Previous Version | Graphics & Text | Print | Product List | Glossary On
Versions: 1 2 3 4 5 6 7 8 9 10 11 12 13 14 15 16 17 18 19 20 21 22 23 24 25 26 27 28 29 30 31 32 33 34 35 36 37 38 39 40 41 42 43 44 45 46 47 48 49 50
000
ASUS41 KCTP 230310
RWRCTP

REGIONAL WEATHER ROUNDUP
NATIONAL WEATHER SERVICE STATE COLLEGE PA
1000 PM EST WED NOV 22 2017

Note: "fair" indicates few or no clouds below 12,000 feet with no
significant weather and/or obstructions to visibility.

* = STATION THAT DOES NOT REPORT PRECIPITATION /E.G. RAIN...SNOW...ETC/
    THUNDER OR FOG.

PAZ002>004-007>009-013>016-020>023-029>032-230400-
WESTERN PENNSYLVANIA

CITY           SKY/WX    TMP DP  RH WIND       PRES   REMARKS
ERIE           CLOUDY    34  22  61 N6        30.20F
MEADVILLE      CLOUDY    29  23  78 W5        30.18
FRANKLIN*      CLOUDY    28  23  81 W5        30.17F
NEW CASTLE     CLOUDY    29  24  82 SW3       30.22S
BEAVER COUNTY  NOT AVBL
BUTLER*        CLOUDY    29  21  72 W5        30.20F
PITTSBURGH INT CLOUDY    30  20  66 CALM      30.20F
PITTSBURGH     CLOUDY    31  15  52 CALM      30.19F
INDIANA*       CLOUDY    30  21  69 NW6       30.21F
LATROBE        CLOUDY    32  18  55 CALM      30.21F
WASHINGTON CO* CLOUDY    31  20  63 N5        30.24F
$$

PAZ004>006-010>012-017>019-024>028-033>037-041-042-045-046-049>053-230400-
CENTRAL PENNSYLVANIA

CITY           SKY/WX    TMP DP  RH WIND       PRES   REMARKS
BRADFORD       CLOUDY    26  21  81 NW9       30.11F
DUBOIS         CLOUDY    28  20  71 NW5       30.12F
CLEARFIELD     CLOUDY    30  19  63 NW13      30.14F
JOHNSTOWN      CLOUDY    27  18  69 NW8       30.11F
ALTOONA        CLOUDY    32  20  61 NW13      30.15F
STATE COLLEGE  CLOUDY    32  19  59 W8        30.15F
WILLIAMSPORT   CLOUDY    35  19  52 NW7       30.16F
SELINSGROVE    CLOUDY    35  21  56 NW10      30.17S
FT INDIANTOWN  CLOUDY    35  19  50 N7        30.15R
CAPITAL CITY   PTCLDY    37  18  46 W12       30.16S
HARRISBURG     CLOUDY    37  21  52 NW13      30.16R
YORK           CLOUDY    35  24  64 NW10      30.16R
$$

PAZ038>040-043-044-047-048-054-055-060>062-067>071-230400-
EASTERN PENNSYLVANIA

CITY           SKY/WX    TMP DP  RH WIND       PRES   REMARKS
SCRANTON       CLOUDY    32  19  58 N14G20    30.12S
MOUNT POCONO   CLOUDY    27  19  72 NW15G22   30.03S
ALLENTOWN      CLOUDY    36  21  54 NW9       30.12R
QUAKERTOWN*    CLEAR     36  19  51 NW9G20    30.10F
READING        PTCLDY    36  22  56 NW14      30.14R
LANCASTER      CLEAR     35  22  58 NW7       30.15R
COATESVILLE    CLEAR     34  23  64 CALM      30.13R
POTTSTOWN      CLEAR     35  21  56 NW12      30.13R
BLUE BELL      CLEAR     34  23  64 CALM      30.13R
DOYLESTOWN     CLEAR     34  22  61 N7        30.09R
WILLOW GROVE   NOT AVBL
NORTH PHILA    CLEAR     37  24  59 NW6       30.13R
PHILADELPHIA   PTCLDY    40  22  48 NW10      30.14R
$$




USA.gov is the U.S. government's official web portal to all federal, state and local government web resources and services.